Time,TemperatureF,DewpointF,PressureIn,WindDirection,WindDirectionDegrees,WindSpeedMPH,WindSpeedGustMPH,Humidity,HourlyPrecipIn,Conditions,Clouds,dailyrainin,SoftwareType,DateUTC
2013-04-24 00:01:00,46.0,43.0,30.11,North,0,0.0,0.0,88,0.00,,,0.00,,2013-04-24 04:01:00,
2013-04-24 00:03:00,45.0,42.0,30.10,North,0,0.0,0.0,90,0.00,,,0.00,,2013-04-24 04:03:00,
2013-04-24 00:12:00,45.0,42.0,30.10,North,0,0.0,0.0,90,0.00,,,0.00,,2013-04-24 04:12:00,
2013-04-24 00:23:00,44.0,42.0,30.09,North,0,0.0,0.0,91,0.00,,,0.00,,2013-04-24 04:23:00,
2013-04-24 00:33:00,44.0,42.0,30.09,North,0,0.0,0.0,92,0.00,,,0.00,,2013-04-24 04:33:00,
2013-04-24 00:43:00,44.0,42.0,30.09,North,0,0.0,0.0,92,0.00,,,0.00,,2013-04-24 04:43:00,
2013-04-24 00:53:00,43.0,41.0,30.09,North,0,0.0,0.0,92,0.00,,,0.00,,2013-04-24 04:53:00,
2013-04-24 01:02:00,43.0,41.0,30.09,North,0,0.0,0.0,93,0.00,,,0.00,,2013-04-24 05:02:00,
2013-04-24 01:12:00,43.0,41.0,30.09,North,0,0.0,0.0,93,0.00,,,0.00,,2013-04-24 05:12:00,
2013-04-24 01:22:00,42.0,40.0,30.07,North,0,0.0,0.0,93,0.00,,,0.00,,2013-04-24 05:22:00,
2013-04-24 01:32:00,42.0,40.0,30.07,North,0,0.0,0.0,94,0.00,,,0.00,,2013-04-24 05:32:00,
2013-04-24 01:42:00,42.0,40.0,30.07,North,0,0.0,0.0,94,0.00,,,0.00,,2013-04-24 05:42:00,
2013-04-24 01:52:00,41.0,39.0,30.06,North,0,0.0,0.0,94,0.00,,,0.00,,2013-04-24 05:52:00,
2013-04-24 02:02:00,40.0,38.0,30.06,North,0,0.0,0.0,94,0.00,,,0.00,,2013-04-24 06:02:00,
2013-04-24 02:12:00,40.0,38.0,30.06,North,0,0.0,0.0,94,0.00,,,0.00,,2013-04-24 06:12:00,
2013-04-24 02:22:00,40.0,39.0,30.06,North,0,0.0,0.0,95,0.00,,,0.00,,2013-04-24 06:22:00,
2013-04-24 02:33:00,41.0,40.0,30.06,North,0,0.0,0.0,95,0.00,,,0.00,,2013-04-24 06:33:00,
2013-04-24 02:42:00,41.0,40.0,30.06,North,0,0.0,0.0,95,0.00,,,0.00,,2013-04-24 06:42:00,
2013-04-24 02:52:00,40.0,39.0,30.05,North,0,0.0,0.0,95,0.00,,,0.00,,2013-04-24 06:52:00,
2013-04-24 03:02:00,40.0,39.0,30.05,North,0,0.0,0.0,96,0.00,,,0.00,,2013-04-24 07:02:00,
2013-04-24 03:11:00,40.0,39.0,30.05,North,0,0.0,0.0,96,0.00,,,0.00,,2013-04-24 07:11:00,
2013-04-24 03:22:00,40.0,39.0,30.05,North,0,0.0,0.0,96,0.00,,,0.00,,2013-04-24 07:22:00,
2013-04-24 03:32:00,39.0,38.0,30.04,North,0,0.0,0.0,96,0.00,,,0.00,,2013-04-24 07:32:00,
2013-04-24 03:42:00,39.0,38.0,30.04,North,0,0.0,0.0,96,0.00,,,0.00,,2013-04-24 07:42:00,
2013-04-24 03:52:00,39.0,38.0,30.04,North,0,0.0,0.0,96,0.00,,,0.00,,2013-04-24 07:52:00,
2013-04-24 04:02:00,39.0,38.0,30.04,North,0,0.0,0.0,96,0.00,,,0.00,,2013-04-24 08:02:00,
2013-04-24 04:12:00,39.0,38.0,30.04,North,0,0.0,0.0,96,0.00,,,0.00,,2013-04-24 08:12:00,
2013-04-24 04:21:00,39.0,38.0,30.05,North,0,0.0,0.0,96,0.00,,,0.00,,2013-04-24 08:21:00,
2013-04-24 04:33:00,38.0,37.0,30.05,North,0,0.0,0.0,96,0.00,,,0.00,,2013-04-24 08:33:00,
2013-04-24 04:42:00,38.0,37.0,30.05,North,0,0.0,0.0,96,0.00,,,0.00,,2013-04-24 08:42:00,
2013-04-24 04:52:00,38.0,37.0,30.04,North,0,0.0,0.0,96,0.00,,,0.00,,2013-04-24 08:52:00,
2013-04-24 05:02:00,38.0,37.0,30.04,North,0,0.0,0.0,96,0.00,,,0.00,,2013-04-24 09:02:00,
2013-04-24 05:11:00,38.0,37.0,30.04,North,0,0.0,0.0,96,0.00,,,0.00,,2013-04-24 09:11:00,
2013-04-24 05:21:00,38.0,37.0,30.04,North,0,0.0,0.0,96,0.00,,,0.00,,2013-04-24 09:21:00,
2013-04-24 05:33:00,38.0,37.0,30.04,North,0,0.0,0.0,96,0.00,,,0.00,,2013-04-24 09:33:00,
2013-04-24 05:42:00,38.0,37.0,30.04,North,0,0.0,0.0,96,0.00,,,0.00,,2013-04-24 09:42:00,
2013-04-24 05:53:00,38.0,37.0,30.04,North,0,0.0,0.0,96,0.00,,,0.00,,2013-04-24 09:53:00,
2013-04-24 06:02:00,38.0,37.0,30.03,North,0,0.0,0.0,96,0.00,,,0.00,,2013-04-24 10:02:00,
2013-04-24 06:12:00,38.0,37.0,30.03,North,0,0.0,0.0,96,0.00,,,0.00,,2013-04-24 10:12:00,
2013-04-24 06:22:00,38.0,37.0,30.04,North,0,0.0,0.0,96,0.00,,,0.00,,2013-04-24 10:22:00,
2013-04-24 06:32:00,38.0,37.0,30.04,North,0,0.0,0.0,96,0.00,,,0.00,,2013-04-24 10:32:00,
2013-04-24 06:42:00,38.0,37.0,30.04,North,0,0.0,0.0,96,0.00,,,0.00,,2013-04-24 10:42:00,
2013-04-24 06:53:00,39.0,38.0,30.04,North,0,0.0,1.0,97,0.00,,,0.00,,2013-04-24 10:53:00,
2013-04-24 07:02:00,40.0,39.0,30.04,North,0,0.0,1.0,97,0.00,,,0.00,,2013-04-24 11:02:00,
2013-04-24 07:11:00,41.0,40.0,30.04,North,0,0.0,3.0,97,0.00,,,0.00,,2013-04-24 11:11:00,
2013-04-24 07:21:00,41.0,40.0,30.04,North,0,0.0,3.0,97,0.00,,,0.00,,2013-04-24 11:21:00,
2013-04-24 07:32:00,42.0,41.0,30.04,North,0,0.0,3.0,97,0.00,,,0.00,,2013-04-24 11:32:00,
2013-04-24 07:42:00,42.0,41.0,30.04,North,0,0.0,3.0,97,0.00,,,0.00,,2013-04-24 11:42:00,
2013-04-24 07:52:00,42.0,41.0,30.03,North,0,0.0,3.0,97,0.00,,,0.00,,2013-04-24 11:52:00,
2013-04-24 08:02:00,43.0,42.0,30.04,North,0,0.0,3.0,97,0.00,,,0.00,,2013-04-24 12:02:00,
2013-04-24 08:11:00,44.0,43.0,30.04,North,0,0.0,1.0,97,0.00,,,0.00,,2013-04-24 12:11:00,
2013-04-24 08:22:00,44.0,43.0,30.04,North,0,0.0,1.0,97,0.00,,,0.00,,2013-04-24 12:22:00,
2013-04-24 08:32:00,44.0,43.0,30.03,North,0,0.0,2.0,97,0.00,,,0.00,,2013-04-24 12:32:00,
2013-04-24 08:42:00,44.0,43.0,30.03,North,0,0.0,2.0,97,0.00,,,0.00,,2013-04-24 12:42:00,
2013-04-24 08:52:00,45.0,44.0,30.03,North,0,0.0,2.0,97,0.00,,,0.00,,2013-04-24 12:52:00,
2013-04-24 09:01:00,45.0,44.0,30.03,North,0,0.0,3.0,98,0.00,,,0.00,,2013-04-24 13:01:00,
2013-04-24 09:12:00,45.0,44.0,30.03,North,0,0.0,3.0,98,0.00,,,0.00,,2013-04-24 13:12:00,
2013-04-24 09:22:00,46.0,45.0,30.03,North,0,0.0,4.0,98,0.00,,,0.00,,2013-04-24 13:22:00,
2013-04-24 09:32:00,46.0,45.0,30.02,North,0,0.0,4.0,98,0.00,,,0.00,,2013-04-24 13:32:00,
2013-04-24 09:41:00,46.0,45.0,30.02,North,0,0.0,4.0,98,0.00,,,0.00,,2013-04-24 13:41:00,
2013-04-24 09:52:00,47.0,46.0,30.02,North,0,0.0,4.0,98,0.00,,,0.00,,2013-04-24 13:52:00,
2013-04-24 10:01:00,48.0,47.0,30.01,North,0,0.0,5.0,97,0.00,,,0.00,,2013-04-24 14:01:00,
2013-04-24 10:11:00,48.0,47.0,30.01,North,0,0.0,5.0,97,0.00,,,0.00,,2013-04-24 14:11:00,
2013-04-24 10:21:00,49.0,48.0,30.01,North,0,0.0,3.0,97,0.00,,,0.00,,2013-04-24 14:21:00,
2013-04-24 10:32:00,50.0,49.0,30.01,North,0,0.0,3.0,95,0.00,,,0.00,,2013-04-24 14:32:00,
2013-04-24 10:41:00,50.0,49.0,30.01,North,0,0.0,3.0,95,0.00,,,0.00,,2013-04-24 14:41:00,
2013-04-24 10:52:00,50.0,48.0,30.00,North,0,0.0,4.0,94,0.00,,,0.00,,2013-04-24 14:52:00,
2013-04-24 11:01:00,51.0,49.0,29.99,North,0,0.0,5.0,93,0.00,,,0.00,,2013-04-24 15:01:00,
2013-04-24 11:11:00,51.0,49.0,29.99,North,0,0.0,5.0,93,0.00,,,0.00,,2013-04-24 15:11:00,
2013-04-24 11:22:00,52.0,50.0,29.98,North,0,0.0,6.0,92,0.00,,,0.00,,2013-04-24 15:22:00,
2013-04-24 11:33:00,53.0,50.0,29.98,North,0,0.0,6.0,91,0.00,,,0.00,,2013-04-24 15:33:00,
2013-04-24 11:43:00,53.0,50.0,29.98,North,0,0.0,6.0,91,0.00,,,0.00,,2013-04-24 15:43:00,
2013-04-24 11:53:00,53.0,50.0,29.98,West,281,1.0,6.0,90,0.00,,,0.00,,2013-04-24 15:53:00,
2013-04-24 12:03:00,53.0,50.0,29.98,West,278,1.0,9.0,89,0.00,,,0.00,,2013-04-24 16:03:00,
2013-04-24 12:12:00,53.0,50.0,29.98,West,278,1.0,9.0,89,0.00,,,0.00,,2013-04-24 16:12:00,
2013-04-24 12:23:00,54.0,51.0,29.96,West,280,2.0,6.0,90,0.00,,,0.00,,2013-04-24 16:23:00,
2013-04-24 12:32:00,55.0,52.0,29.96,West,266,1.0,8.0,88,0.00,,,0.00,,2013-04-24 16:32:00,
2013-04-24 12:42:00,57.0,52.0,29.95,West,268,1.0,7.0,84,0.00,,,0.00,,2013-04-24 16:42:00,
2013-04-24 12:53:00,57.0,52.0,29.95,West,268,1.0,7.0,84,0.00,,,0.00,,2013-04-24 16:53:00,
2013-04-24 13:02:00,58.0,53.0,29.93,West,273,1.0,10.0,84,0.00,,,0.00,,2013-04-24 17:02:00,
2013-04-24 13:12:00,58.0,53.0,29.93,West,273,1.0,10.0,84,0.00,,,0.00,,2013-04-24 17:12:00,
2013-04-24 13:22:00,58.0,53.0,29.93,West,266,1.0,9.0,84,0.00,,,0.00,,2013-04-24 17:22:00,
2013-04-24 13:32:00,60.0,54.0,29.92,WNW,288,1.0,11.0,82,0.00,,,0.00,,2013-04-24 17:32:00,
2013-04-24 13:42:00,60.0,54.0,29.92,WNW,288,1.0,11.0,82,0.00,,,0.00,,2013-04-24 17:42:00,
2013-04-24 13:52:00,62.0,56.0,29.90,West,272,1.0,6.0,81,0.00,,,0.00,,2013-04-24 17:52:00,
2013-04-24 14:02:00,63.0,56.0,29.89,West,274,2.0,6.0,79,0.00,,,0.00,,2013-04-24 18:02:00,
2013-04-24 14:12:00,63.0,56.0,29.89,West,274,2.0,6.0,79,0.00,,,0.00,,2013-04-24 18:12:00,
2013-04-24 14:22:00,64.0,56.0,29.87,West,272,1.0,10.0,76,0.00,,,0.00,,2013-04-24 18:22:00,
2013-04-24 14:33:00,66.0,57.0,29.87,WNW,284,2.0,8.0,73,0.00,,,0.00,,2013-04-24 18:33:00,
2013-04-24 14:42:00,66.0,57.0,29.87,WNW,284,2.0,8.0,73,0.00,,,0.00,,2013-04-24 18:42:00,
2013-04-24 14:52:00,68.0,58.0,29.87,West,264,2.0,10.0,71,0.00,,,0.00,,2013-04-24 18:52:00,
2013-04-24 15:02:00,69.0,59.0,29.85,West,262,2.0,9.0,71,0.00,,,0.00,,2013-04-24 19:02:00,
2013-04-24 15:11:00,69.0,59.0,29.85,West,262,2.0,9.0,71,0.00,,,0.00,,2013-04-24 19:11:00,
2013-04-24 15:22:00,70.0,59.0,29.84,West,270,2.0,7.0,69,0.00,,,0.00,,2013-04-24 19:22:00,
2013-04-24 15:32:00,71.0,61.0,29.84,WNW,282,1.0,9.0,70,0.00,,,0.00,,2013-04-24 19:32:00,
2013-04-24 15:42:00,71.0,61.0,29.84,WNW,282,1.0,9.0,70,0.00,,,0.00,,2013-04-24 19:42:00,
2013-04-24 15:52:00,71.0,60.0,29.83,North,0,0.0,7.0,69,0.00,,,0.00,,2013-04-24 19:52:00,
2013-04-24 16:02:00,71.0,60.0,29.82,West,278,1.0,7.0,69,0.00,,,0.00,,2013-04-24 20:02:00,
2013-04-24 16:11:00,71.0,60.0,29.82,West,278,1.0,7.0,69,0.00,,,0.00,,2013-04-24 20:11:00,
2013-04-24 16:22:00,70.0,60.0,29.82,West,268,1.0,7.0,70,0.00,,,0.00,,2013-04-24 20:22:00,
2013-04-24 16:32:00,70.0,61.0,29.82,WNW,283,1.0,6.0,72,0.00,,,0.00,,2013-04-24 20:32:00,
2013-04-24 16:42:00,70.0,61.0,29.82,WNW,283,1.0,6.0,72,0.00,,,0.00,,2013-04-24 20:42:00,
2013-04-24 16:52:00,70.0,60.0,29.81,North,0,0.0,11.0,71,0.00,,,0.00,,2013-04-24 20:52:00,
2013-04-24 17:02:00,69.0,59.0,29.80,West,260,3.0,11.0,71,0.00,,,0.00,,2013-04-24 21:02:00,
2013-04-24 17:11:00,69.0,59.0,29.80,West,260,3.0,11.0,71,0.00,,,0.00,,2013-04-24 21:11:00,
2013-04-24 17:22:00,68.0,59.0,29.78,WSW,244,1.0,10.0,72,0.00,,,0.00,,2013-04-24 21:22:00,
2013-04-24 17:33:00,68.0,59.0,29.78,North,0,0.0,8.0,74,0.00,,,0.00,,2013-04-24 21:33:00,
2013-04-24 17:42:00,68.0,59.0,29.78,North,0,0.0,8.0,74,0.00,,,0.00,,2013-04-24 21:42:00,
2013-04-24 17:53:00,67.0,58.0,29.80,West,263,1.0,12.0,74,0.00,,,0.00,,2013-04-24 21:53:00,
2013-04-24 18:03:00,67.0,59.0,29.78,SW,214,1.0,14.0,75,0.00,,,0.00,,2013-04-24 22:03:00,
2013-04-24 18:12:00,67.0,59.0,29.78,SW,214,1.0,14.0,75,0.00,,,0.00,,2013-04-24 22:12:00,
2013-04-24 18:22:00,67.0,58.0,29.78,West,278,1.0,12.0,74,0.00,,,0.00,,2013-04-24 22:22:00,
2013-04-24 18:33:00,66.0,57.0,29.76,WNW,284,1.0,12.0,73,0.00,,,0.00,,2013-04-24 22:33:00,
2013-04-24 18:42:00,66.0,57.0,29.76,WNW,284,1.0,12.0,73,0.00,,,0.00,,2013-04-24 22:42:00,
2013-04-24 18:52:00,66.0,58.0,29.76,West,281,1.0,12.0,75,0.00,,,0.00,,2013-04-24 22:52:00,
2013-04-24 19:02:00,65.0,57.0,29.77,WNW,288,1.0,4.0,76,0.00,,,0.00,,2013-04-24 23:02:00,
2013-04-24 19:12:00,65.0,57.0,29.77,WNW,288,1.0,4.0,76,0.00,,,0.00,,2013-04-24 23:12:00,
2013-04-24 19:21:00,65.0,58.0,29.78,North,0,0.0,7.0,77,0.00,,,0.00,,2013-04-24 23:21:00,
2013-04-24 19:32:00,65.0,57.0,29.78,North,0,0.0,4.0,76,0.00,,,0.00,,2013-04-24 23:32:00,
2013-04-24 19:42:00,65.0,57.0,29.78,North,0,0.0,4.0,76,0.00,,,0.00,,2013-04-24 23:42:00,
2013-04-24 19:52:00,65.0,58.0,29.80,North,0,0.0,6.0,77,0.00,,,0.00,,2013-04-24 23:52:00,
2013-04-24 20:02:00,65.0,58.0,29.80,North,0,0.0,9.0,77,0.00,,,0.00,,2013-04-25 00:02:00,
2013-04-24 20:12:00,65.0,58.0,29.80,North,0,0.0,9.0,77,0.00,,,0.00,,2013-04-25 00:12:00,
2013-04-24 20:22:00,65.0,58.0,29.80,North,0,0.0,4.0,77,0.00,,,0.00,,2013-04-25 00:22:00,
2013-04-24 20:32:00,65.0,58.0,29.80,North,0,0.0,6.0,77,0.00,,,0.00,,2013-04-25 00:32:00,
2013-04-24 20:42:00,65.0,58.0,29.80,North,0,0.0,6.0,77,0.00,,,0.00,,2013-04-25 00:42:00,
2013-04-24 20:52:00,64.0,57.0,29.81,North,0,0.0,5.0,78,0.00,,,0.00,,2013-04-25 00:52:00,
2013-04-24 21:01:00,64.0,57.0,29.81,West,270,1.0,6.0,78,0.00,,,0.00,,2013-04-25 01:01:00,
2013-04-24 21:11:00,64.0,57.0,29.81,West,270,1.0,6.0,78,0.00,,,0.00,,2013-04-25 01:11:00,
2013-04-24 21:23:00,64.0,57.0,29.83,North,0,0.0,4.0,78,0.00,,,0.00,,2013-04-25 01:23:00,
2013-04-24 21:32:00,64.0,57.0,29.83,North,0,0.0,4.0,79,0.00,,,0.00,,2013-04-25 01:32:00,
2013-04-24 21:42:00,64.0,57.0,29.83,North,0,0.0,4.0,79,0.00,,,0.00,,2013-04-25 01:42:00,
2013-04-24 21:52:00,63.0,57.0,29.85,North,0,0.0,2.0,80,0.00,,,0.00,,2013-04-25 01:52:00,
2013-04-24 22:02:00,63.0,57.0,29.85,North,0,0.0,5.0,80,0.00,,,0.00,,2013-04-25 02:02:00,
2013-04-24 22:11:00,63.0,57.0,29.85,North,0,0.0,5.0,80,0.00,,,0.00,,2013-04-25 02:11:00,
2013-04-24 22:22:00,63.0,57.0,29.85,North,0,0.0,4.0,81,0.00,,,0.00,,2013-04-25 02:22:00,
2013-04-24 22:32:00,63.0,57.0,29.85,North,0,0.0,3.0,82,0.00,,,0.00,,2013-04-25 02:32:00,
2013-04-24 22:42:00,63.0,57.0,29.85,North,0,0.0,3.0,82,0.00,,,0.00,,2013-04-25 02:42:00,
2013-04-24 22:52:00,63.0,57.0,29.85,North,0,0.0,3.0,82,0.00,,,0.00,,2013-04-25 02:52:00,
2013-04-24 23:02:00,62.0,58.0,29.85,North,0,0.0,5.0,86,0.00,,,0.00,,2013-04-25 03:02:00,
2013-04-24 23:11:00,61.0,58.0,29.85,North,0,0.0,0.0,89,0.01,,,0.01,,2013-04-25 03:11:00,
2013-04-24 23:22:00,61.0,58.0,29.85,North,0,0.0,0.0,89,0.01,,,0.01,,2013-04-25 03:22:00,
2013-04-24 23:33:00,61.0,58.0,29.85,North,0,0.0,6.0,91,0.01,,,0.01,,2013-04-25 03:33:00,
2013-04-24 23:42:00,61.0,58.0,29.85,North,0,0.0,6.0,91,0.01,,,0.01,,2013-04-25 03:42:00,
2013-04-24 23:52:00,61.0,58.0,29.85,North,0,0.0,5.0,91,0.01,,,0.01,,2013-04-25 03:52:00,